Lapse_Rate
4.3 3.6 4.1 4.2 4.1 5.0 5.9 6.3 5.6 5.6 5.0 4.1 4.1 4.0 4.3 4.2 3.8 4.4 4.1 4.5 3.7 4.2 2.9 2.7 3.9 4.5 5.9 5.7 5.2 5.6 5.2 4.5 4.1
5.5 5.1 4.4 3.5 3.7 5.3 6.1 6.2 5.8 5.1 4.9 4.2 4.5 4.1 3.2 3.9 4.0 4.6 4.8 5.2 3.5 4.3 2.9 3.6 4.0 3.4 4.3 6.2 5.6 5.4 4.7 4.1 4.3
6.9 6.5 6.9 5.7 4.4 5.3 4.4 3.5 6.4 5.1 4.6 4.0 4.1 4.2 4.0 3.8 3.5 3.8 4.2 4.7 4.8 4.5 3.3 3.7 3.5 3.3 3.3 4.4 5.5 5.2 4.5 4.5 4.7
6.5 5.4 5.4 5.6 4.9 3.7 3.8 3.6 4.3 4.7 4.4 4.2 4.1 4.7 4.0 3.7 4.0 4.0 3.7 4.4 4.6 4.6 3.3 2.6 2.7 2.4 3.0 3.8 4.7 4.8 4.2 4.4 5.1
6.3 6.0 4.7 4.8 4.2 4.3 2.8 2.9 4.0 2.6 2.7 2.9 3.2 5.0 4.6 4.5 4.1 4.4 4.4 4.0 4.4 4.5 3.7 2.8 2.1 1.9 2.0 3.5 3.8 4.9 4.8 4.8 5.9
7.0 6.1 5.1 4.7 4.4 4.1 3.6 3.8 4.0 3.8 2.6 3.0 2.7 2.5 3.9 3.0 4.8 5.6 5.2 4.5 4.0 4.2 4.2 4.1 3.8 3.4 3.1 3.3 3.9 5.0 4.5 4.3 4.7
7.5 7.2 6.4 5.5 4.7 4.3 3.3 3.6 2.4 3.9 3.4 3.2 2.5 1.6 1.5 2.1 2.8 3.2 4.7 4.4 4.9 4.8 4.2 4.1 4.3 4.2 4.3 4.8 4.9 5.0 5.0 4.6 4.4
7.5 7.1 6.6 5.6 4.3 3.9 3.3 2.9 3.4 3.6 3.3 3.1 2.7 3.7 2.8 1.2 2.2 1.9 4.0 4.7 4.7 4.5 5.3 5.2 4.7 4.8 4.8 4.8 5.4 6.2 4.9 4.8 5.0
7.2 7.5 7.2 7.0 6.2 5.1 4.0 3.3 3.8 4.3 3.5 2.5 3.6 3.3 3.1 1.1 0.8 1.6 2.8 3.2 4.0 5.0 5.9 5.0 5.7 5.4 5.2 5.0 6.5 5.4 3.6 4.8 5.2
6.5 7.0 6.4 6.6 6.7 6.1 5.7 5.3 4.9 4.6 3.9 3.9 1.9 3.3 2.7 3.0 2.9 3.1 2.3 1.5 1.4 1.7 1.6 4.0 5.3 5.4 5.7 5.2 4.6 2.8 2.6 2.0 4.3
6.0 5.9 5.9 5.9 5.7 5.6 5.9 5.9 5.6 4.9 5.3 5.4 4.1 4.3 4.4 3.5 3.1 2.9 2.3 1.4 1.1 2.1 1.7 2.0 3.0 4.1 4.5 4.7 5.0 2.4 0.6 0.9 2.3
5.6 5.5 5.5 5.8 5.6 5.6 5.1 5.0 5.0 5.4 5.5 5.7 6.2 6.3 6.0 5.4 4.2 3.7 3.3 3.1 3.3 3.0 3.2 2.9 3.1 2.5 3.4 3.6 4.0 3.0 0.7 0.3 2.3
5.8 5.7 5.8 5.7 5.9 5.5 5.0 5.0 4.9 4.8 5.2 4.6 4.5 5.0 5.0 4.4 4.5 4.8 4.3 4.4 3.7 3.6 3.4 3.4 3.7 3.5 2.9 4.0 4.2 3.3 -0.2 0.3 3.3
5.8 5.4 6.8 6.2 5.4 5.3 5.2 4.7 4.7 4.2 4.1 3.3 3.7 3.2 3.4 4.1 4.2 3.8 3.8 3.8 3.3 3.1 3.0 3.1 3.5 4.1 3.6 3.8 4.2 2.1 -0.1 -0.9 1.8
5.8 5.4 5.8 5.8 4.9 4.7 4.6 4.4 4.2 3.9 4.1 5.1 4.1 3.3 3.3 3.2 3.3 3.7 4.8 3.6 3.1 3.2 2.8 3.3 3.8 4.4 4.9 5.6 2.9 0.2 -1.1 -2.0 -1.8
4.8 4.7 4.8 5.0 5.1 4.8 4.4 4.2 3.8 4.0 4.8 4.6 4.2 3.5 3.1 2.8 3.0 4.1 5.1 4.4 4.4 3.8 4.1 4.1 4.7 4.9 4.8 4.9 4.2 3.4 -0.4 -0.4 1.4
4.6 5.0 4.9 5.4 5.3 5.3 4.7 4.5 4.5 4.3 4.2 3.4 3.1 3.0 3.2 4.1 4.0 4.0 4.0 4.5 5.8 5.6 5.2 4.7 4.8 4.7 4.2 3.7 3.6 2.6 3.1 1.2 1.2
5.3 5.6 5.4 5.6 5.9 5.8 5.4 5.4 4.8 3.9 3.5 3.0 2.5 2.7 3.1 3.3 4.1 3.9 3.9 4.9 4.0 4.9 4.8 3.3 4.2 5.1 4.6 4.6 4.4 4.0 2.5 0.5 1.9
5.4 5.7 6.1 6.1 6.2 5.8 6.3 6.3 5.3 4.7 4.1 3.5 2.9 3.0 3.6 4.0 3.8 3.7 4.2 4.5 3.2 2.5 1.8 1.0 0.4 -0.1 0.0 4.2 2.4 0.0 -1.1 -1.4 -2.1
5.8 6.3 6.2 5.9 6.0 5.9 6.0 6.5 6.7 6.4 6.0 5.2 4.0 3.6 4.5 4.7 5.3 5.3 4.7 4.3 4.0 3.0 1.6 1.8 1.6 1.2 0.6 -0.4 -0.0 -1.3 -1.8 -2.0 -1.6
Wind_Speed
13 7 7 8 10 10 7 15 16 15 12 13 9 8 8 7 6 4 4 5 4 3 4 4 9 7 8 7 9 6 6 1 2
12 12 15 13 17 6 7 15 17 17 16 13 12 10 7 7 7 7 6 6 6 6 5 4 5 7 4 8 10 8 5 3 3
6 3 18 18 17 3 5 6 16 17 17 16 14 9 8 6 7 7 6 4 6 7 5 4 4 6 5 4 7 9 6 3 3
5 5 5 7 9 10 9 13 9 4 9 16 15 13 9 8 7 7 6 6 5 6 6 7 6 6 5 4 6 6 6 5 6
7 7 9 7 8 6 9 12 11 13 13 11 7 13 12 11 8 7 7 7 7 7 8 6 7 6 6 7 6 6 7 7 5
8 10 9 10 9 8 10 9 6 8 11 12 10 8 3 3 6 11 10 9 7 7 7 11 9 7 7 7 7 6 7 7 6
10 9 10 10 11 9 8 8 9 7 8 8 8 8 4 7 8 8 7 7 8 7 7 7 7 7 7 7 7 7 6 7 7
11 10 10 9 10 9 8 9 6 6 4 9 9 6 6 4 6 9 5 5 6 7 6 6 7 7 6 6 7 7 7 7 7
12 12 11 11 11 11 8 6 4 6 5 9 8 8 7 9 13 9 9 8 8 6 2 6 5 6 6 7 5 10 13 9 7
10 11 8 9 9 8 7 7 6 6 7 6 11 9 5 1 7 1 3 5 6 6 6 6 4 5 5 7 7 11 11 9 6
9 8 8 8 7 7 7 5 5 7 6 6 9 6 4 4 4 3 4 4 4 4 3 5 4 5 5 5 5 9 10 10 6
9 8 6 6 7 7 7 8 8 9 10 10 10 8 6 4 5 5 5 5 5 4 4 3 4 3 5 6 6 9 10 6 5
9 9 6 7 7 7 8 8 8 9 9 9 9 9 8 8 7 6 5 2 3 2 3 4 4 6 4 6 6 9 11 6 4
8 8 6 6 8 7 8 8 8 11 10 10 9 10 10 8 6 8 6 5 4 4 5 6 5 6 5 6 5 9 10 6 2
9 8 8 8 8 10 9 8 8 7 8 7 7 7 6 7 9 9 6 7 5 6 6 6 6 5 5 3 6 6 8 11 9
9 10 7 7 7 9 8 9 8 7 7 7 7 7 8 8 7 7 9 7 7 5 6 4 5 5 4 4 3 1 6 6 5
8 7 7 6 7 7 7 7 7 7 7 7 7 6 7 7 8 9 9 6 7 7 7 6 4 4 4 4 4 4 3 3 3
7 7 6 6 5 6 7 5 7 7 7 7 6 6 6 6 5 7 7 7 4 6 6 4 5 7 4 5 6 5 5 3 4
7 7 5 5 6 7 5 6 7 5 5 6 6 5 4 5 4 5 5 7 9 10 12 16 18 14 7 8 10 13 12 12 11
6 6 7 6 6 6 6 4 4 2 3 2 4 5 5 4 5 6 6 6 7 10 11 12 14 17 16 7 12 15 14 14 16
Wind_Direction
171 202 240 243 261 270 167 173 170 171 172 173 188 178 195 186 183 162 192 180 189 163 163 192 212 203 176 193 197 203 175 183 269
150 193 211 235 246 267 306 190 175 176 180 179 185 189 189 181 183 185 209 219 183 169 187 177 123 121 176 211 194 201 178 199 265
119 237 234 217 228 62 30 339 183 179 182 180 181 187 187 193 185 188 200 224 199 186 164 138 174 183 176 234 194 193 185 210 258
81 49 41 127 123 103 79 37 329 142 194 183 181 186 186 187 196 195 192 205 226 167 158 166 207 195 181 217 231 201 184 199 226
97 76 55 69 89 126 93 70 2 52 33 34 326 191 183 190 184 187 194 200 213 178 170 179 202 199 210 208 234 201 194 210 219
107 95 82 92 77 78 102 108 92 54 63 23 2 319 212 175 191 195 203 200 203 208 177 179 197 203 203 221 207 214 213 207 218
107 101 101 96 94 89 80 70 73 73 72 83 12 358 72 82 42 344 241 186 191 204 200 190 200 208 206 203 204 217 217 206 219
108 97 90 89 94 91 84 74 69 86 88 92 64 8 19 23 76 3 338 283 196 204 213 206 199 207 219 218 208 215 223 219 214
110 111 110 108 103 102 94 101 114 106 76 82 99 68 20 13 33 20 3 2 10 39 243 236 221 230 222 225 224 221 219 217 220
103 102 93 100 104 113 120 138 145 131 127 124 103 85 66 321 72 12 356 5 20 26 3 0 346 286 256 255 249 237 239 213 235
97 85 84 78 74 71 86 77 86 128 112 96 90 115 125 73 80 53 42 23 12 12 8 356 354 339 317 288 269 262 262 254 226
103 91 74 91 100 72 47 46 32 54 65 61 55 43 29 43 39 31 35 33 315 322 317 345 320 311 332 311 283 278 268 265 250
96 87 60 65 85 73 54 39 46 53 59 51 37 19 16 15 6 2 342 351 337 320 318 295 307 301 296 288 288 278 273 262 254
103 112 84 74 77 80 57 37 45 53 46 35 26 16 2 358 352 345 344 354 331 328 323 313 303 298 289 286 337 30 22 1 285
111 96 63 53 72 72 58 48 51 50 38 14 18 9 3 352 351 338 331 326 312 325 323 314 295 276 296 59 82 74 58 70 81
94 84 66 51 73 74 52 52 51 42 3 19 16 20 360 344 337 333 336 325 311 319 312 330 347 17 26 8 19 92 79 52 32
95 95 83 69 61 70 63 47 40 41 31 24 23 11 349 339 357 356 341 331 3 355 351 349 343 340 331 314 328 322 296 329 319
98 98 99 93 85 86 81 65 59 42 19 16 12 354 354 352 348 352 336 342 336 342 340 352 334 328 315 314 304 278 235 273 309
96 97 82 81 85 90 91 88 81 55 16 30 7 355 343 333 335 324 338 348 345 351 350 351 343 333 300 307 299 309 314 309 291
98 114 99 93 89 85 74 64 91 62 98 31 339 339 327 327 352 360 354 351 352 340 335 327 324 327 330 315 259 287 283 275 278